Regional Weather Roundup
Issued by NWS Cleveland, OH

Home | Current Version | Previous Version | Text Only | Print | Product List | Glossary Off
Versions: 1 2 3 4 5 6 7 8 9 10 11 12 13 14 15 16 17 18 19 20 21 22 23 24 25 26 27 28 29 30 31 32 33 34 35 36 37 38 39 40 41 42 43 44 45 46 47 48 49 50

620
ASUS41 KCLE 171310
RWRCLE
OHIO REGIONAL WEATHER ROUNDUP
NATIONAL WEATHER SERVICE WILMINGTON, OH
800 AM EST TUE JAN 17 2017

NOTE: "FAIR" INDICATES FEW OR NO CLOUDS BELOW 12,000 FEET WITH NO
SIGNIFICANT WEATHER AND/OR OBSTRUCTIONS TO VISIBILITY.

OHZ001>008-015>018-024>027-034-035-043-044-171400-
   NORTHWEST OHIO

CITY           SKY/WX    TMP DP  RH WIND       PRES   REMARKS
DEFIANCE       HVY RAIN  51  49  92 W5        29.76F FOG
FINDLAY        CLOUDY    52  49  89 S14       29.79F
TOLEDO EXPRESS RAIN      45  45 100 CALM      29.78F FOG
TOLEDO EXEC    LGT RAIN  50  50 100 S9        29.80F FOG
LIMA           CLOUDY    56  56 100 S16G25    29.79F
$$

OHZ009>014-019>023-028>033-038-089-171400-
   NORTHEAST OHIO

CITY           SKY/WX    TMP DP  RH WIND       PRES   REMARKS
CLE-HOPKINS    CLOUDY    53  48  83 S13G24    29.88F
CLE-LAKEFRONT  CLOUDY    50  47  89 SE18      29.85F
CUY CO. ARPT   CLOUDY    50  34  53 S13       29.88F
LORAIN-ELYRIA  CLOUDY    48  45  89 S13       29.85F FOG
ASHTABULA      LGT RAIN  43  42  97 SE8       29.91F FOG
AKRON-CANTON   CLOUDY    50  47  89 S13       29.90F FOG
WOOSTER        LGT RAIN  50  48  93 S10       29.89F
MANSFIELD      LGT RAIN  51  51 100 S13       29.86F FOG
YOUNGSTOWN     DRIZZLE   47  45  93 S12       29.93F FOG
$$

OHZ042-051>053-060>062-070>072-077>081-171400-
  SOUTHWEST OHIO

CITY           SKY/WX    TMP DP  RH WIND       PRES   REMARKS
CINC-COVINGTON CLOUDY    59  56  89 SW12      29.90S
CINC-LUNKEN    CLOUDY    59  57  93 S12       29.91S
HAMILTON       FAIR      59  57  93 SW8       29.89S
DAYTON         CLOUDY    57  55  93 S17G26    29.85F
WRIGHT-PAT AFB PTCLDY    58  58 100 S21G26    29.85F
DAYTON GENERAL CLOUDY    58  55  90 SW12      29.87F
WILMINGTON     CLOUDY    57  55  93 S16       29.89F
$$

OHZ036-037-039>041-045>050-054>059-063>069-073>076-082>088-171400-
  CENTRAL AND SOUTHEAST OHIO

CITY           SKY/WX    TMP DP  RH WIND       PRES   REMARKS
COLUMBUS       CLOUDY    57  54  89 S13       29.89F
OSU AIRPORT    CLOUDY    54  54 100 S17G26    29.88F
BOLTON FIELD   CLOUDY    55  55 100 S13       29.89F
RICKENBACK AFB   N/A     54  54 100 S14       29.90F
NEWARK         LGT RAIN  56  53  90 S12       29.90F
MARION         CLOUDY    54  52  93 S20G29    29.85F
LANCASTER      CLOUDY    57  53  86 S12       29.92F
ZANESVILLE     CLOUDY    56  53  90 S14       29.94R
NEW PHILLY     CLOUDY    51  50  96 SE6       29.93F
$$




USA.gov is the U.S. government's official web portal to all federal, state and local government web resources and services.